Location: Unspecified
(41.1637°N, 24.2901°E)
Time: 11:25:13
(UTC+02:00)

ISS - Pass Details

Date: 11 May 2026
Orbit: 414 x 424 km, 51.6° (Epoch: 12 May)

Event Time Altitude Azimuth Distance (km) Brightness Sun altitude
Rises 00:09:16 0° 307° (NW) 2,356 0.6 -31.0°
Reaches altitude 10° 00:12:01 10° 331° (NNW) 1,493 -0.3 -31.0°
Enters shadow 00:12:08 11° 333° (NNW) 1,462 -0.3 -31.0°
